Weather History for Crystal River, FL

Change the Weather History Date:

Friday, August 2, 2013

  Actual Average (KBKV) Record (KBKV)
Temperature  
Mean Temperature 80 °F -  
Max Temperature 89 °F 87 °F 97 °F (2006)
Min Temperature 71 °F 70 °F 70 °F (2000)
Cooling Degree Days 15    
Growing Degree Days 30 (Base 50)    
Moisture  
Dew Point 71 °F    
Average Humidity 76    
Maximum Humidity 94    
Minimum Humidity 52    
Precipitation  
Precipitation 0.00 in - - ()
Sea Level Pressure  
Sea Level Pressure 30.00 in    
Wind  
Wind Speed 1 mph (WNW)    
Max Wind Speed 10 mph    
Max Gust Speed 16 mph    
Visibility 10 miles    
Events Thunderstorm    
Averages and records for this station are not official NWS values.
T = Trace of Precipitation, MM = Missing Value Source: NWS Daily Summary

Daily Weather History Graph

Daily Weather History Graph

Search for Another Location

Airport:

Trip Planner

Search our weather history database for the weather conditions in past years. The results will help you decide how hot, cold, wet, or windy it might be!

Date:

Astronomy

Aug. 02, 2013 Rise Set
Actual Time 6:52 AM EDT 8:20 PM EDT
Civil Twilight 6:26 AM EDT 8:46 PM EDT
Nautical Twilight 5:56 AM EDT 9:16 PM EDT
Astronomical Twilight 5:24 AM EDT 9:48 PM EDT
Moon 3:15 AM EDT (8/2) 5:13 PM EDT (8/2)
Length of Visible Light 14h 19m
Length of Day
13h 28m
Waning Crescent, 16% of the Moon is Illuminated
Aug 2
Waning Crescent
Aug 6
New
Aug 14
First Quarter
Aug 20
Full
Aug 28
Last Quarter

Hourly Weather History & Observations

Time (EDT) Temp. Heat Index Dew Point Humidity Pressure Visibility Wind Dir Wind Speed Gust Speed Precip Events Conditions
12:15 AM 75.2 °F - 71.6 °F 89% 29.99 in 10.0 mi Calm Calm - N/A   Clear
12:35 AM 75.2 °F - 69.8 °F 83% 29.99 in 10.0 mi Calm Calm - N/A   Clear
12:55 AM 75.2 °F - 69.8 °F 83% 29.99 in 10.0 mi Calm Calm - N/A   Clear
1:15 AM 73.4 °F - 71.6 °F 94% 29.99 in 10.0 mi Calm Calm - N/A   Clear
1:35 AM 73.4 °F - 69.8 °F 88% 29.99 in 10.0 mi Calm Calm - N/A   Clear
1:55 AM 73.4 °F - 69.8 °F 88% 29.99 in 10.0 mi Calm Calm - N/A   Clear
2:15 AM 73.4 °F - 69.8 °F 88% 29.99 in 10.0 mi Calm Calm - N/A   Clear
2:35 AM 73.4 °F - 69.8 °F 88% 29.99 in 10.0 mi Calm Calm - N/A   Clear
2:55 AM 73.4 °F - 69.8 °F 88% 29.98 in 10.0 mi Calm Calm - N/A   Clear
3:15 AM 71.6 °F - 69.8 °F 94% 29.98 in 10.0 mi Calm Calm - N/A   Scattered Clouds
3:35 AM 71.6 °F - 69.8 °F 94% 29.97 in 10.0 mi Calm Calm - N/A   Mostly Cloudy
3:55 AM 71.6 °F - 69.8 °F 94% 29.97 in 10.0 mi Calm Calm - N/A   Scattered Clouds
4:15 AM 71.6 °F - 69.8 °F 94% 29.96 in 10.0 mi Calm Calm - N/A   Clear
4:35 AM 71.6 °F - 69.8 °F 94% 29.96 in 10.0 mi Calm Calm - N/A   Clear
4:55 AM 71.6 °F - 69.8 °F 94% 29.96 in 10.0 mi Calm Calm - N/A   Clear
5:15 AM 71.6 °F - 69.8 °F 94% 29.96 in 10.0 mi Calm Calm - N/A   Clear
5:35 AM 71.6 °F - 69.8 °F 94% 29.96 in 10.0 mi Calm Calm - N/A   Clear
5:55 AM 71.6 °F - 69.8 °F 94% 29.97 in 10.0 mi Calm Calm - N/A   Clear
6:15 AM 71.6 °F - 69.8 °F 94% 29.97 in 10.0 mi Calm Calm - N/A   Clear
6:35 AM 71.6 °F - 69.8 °F 94% 29.98 in 10.0 mi Calm Calm - N/A   Clear
6:55 AM 71.6 °F - 69.8 °F 94% 29.98 in 10.0 mi Calm Calm - N/A   Clear
7:15 AM 71.6 °F - 69.8 °F 94% 29.99 in 10.0 mi Calm Calm - N/A   Clear
7:35 AM 71.6 °F - 69.8 °F 94% 29.99 in 10.0 mi Calm Calm - N/A   Clear
7:55 AM 73.4 °F - 71.6 °F 94% 29.99 in 10.0 mi Calm Calm - N/A   Clear
8:35 AM 77.0 °F - 71.6 °F 83% 30.00 in 10.0 mi Calm Calm - N/A   Clear
8:55 AM 78.8 °F - 71.6 °F 78% 30.00 in 10.0 mi Calm Calm - N/A   Clear
9:15 AM 80.6 °F 84.6 °F 71.6 °F 74% 30.01 in 10.0 mi Calm Calm - N/A   Clear
9:35 AM 82.4 °F 87.2 °F 71.6 °F 70% 30.01 in 10.0 mi ESE 3.5 mph - N/A   Clear
9:55 AM 82.4 °F 87.2 °F 71.6 °F 70% 30.02 in 10.0 mi WSW 3.5 mph - N/A   Clear
10:15 AM 84.2 °F 89.6 °F 71.6 °F 66% 30.03 in 10.0 mi Calm Calm - N/A   Clear
10:35 AM 86.0 °F 93.4 °F 73.4 °F 66% 30.04 in 10.0 mi NW 3.5 mph - N/A   Clear
10:55 AM 86.0 °F 91.8 °F 71.6 °F 62% 30.04 in 10.0 mi Calm Calm - N/A   Clear
11:15 AM 87.8 °F 93.8 °F 71.6 °F 58% 30.04 in 10.0 mi Calm Calm - N/A   Scattered Clouds
11:35 AM 86.0 °F 91.8 °F 71.6 °F 62% 30.05 in 10.0 mi NNW 4.6 mph - N/A   Scattered Clouds
11:55 AM 87.8 °F 93.8 °F 71.6 °F 58% 30.05 in 10.0 mi Calm Calm - N/A   Clear
12:15 PM 89.6 °F 96.2 °F 71.6 °F 55% 30.04 in 10.0 mi West 4.6 mph - N/A   Clear
12:35 PM 89.6 °F 94.7 °F 69.8 °F 52% 30.04 in 10.0 mi West 4.6 mph - N/A   Clear
12:55 PM 87.8 °F 93.8 °F 71.6 °F 58% 30.04 in 10.0 mi WSW 5.8 mph - N/A   Scattered Clouds
1:15 PM 86.0 °F 93.4 °F 73.4 °F 66% 30.03 in 10.0 mi West 8.1 mph 16.1 mph N/A   Mostly Cloudy
1:35 PM 87.8 °F 95.6 °F 73.4 °F 62% 30.03 in 10.0 mi NNW 10.4 mph - N/A   Scattered Clouds
1:55 PM 87.8 °F 95.6 °F 73.4 °F 62% 30.03 in 10.0 mi WNW 3.5 mph - N/A   Scattered Clouds
2:15 PM 87.8 °F 93.8 °F 71.6 °F 58% 30.02 in 10.0 mi NW 4.6 mph - N/A   Scattered Clouds
2:35 PM 89.6 °F 96.2 °F 71.6 °F 55% 30.02 in 10.0 mi West 9.2 mph - N/A   Clear
2:55 PM 89.6 °F 96.2 °F 71.6 °F 55% 30.01 in 10.0 mi West 4.6 mph - N/A   Clear
3:15 PM 87.8 °F 93.8 °F 71.6 °F 58% 30.01 in 10.0 mi WNW 6.9 mph - N/A   Mostly Cloudy
3:35 PM 87.8 °F 93.8 °F 71.6 °F 58% 30.00 in 10.0 mi WNW 5.8 mph - N/A   Mostly Cloudy
3:55 PM 87.8 °F 92.6 °F 69.8 °F 55% 29.99 in 10.0 mi NW 4.6 mph - N/A   Mostly Cloudy
4:15 PM 86.0 °F 91.8 °F 71.6 °F 62% 29.98 in 10.0 mi NNW 3.5 mph - N/A   Overcast
4:35 PM 87.8 °F 93.8 °F 71.6 °F 58% 29.98 in 10.0 mi West 6.9 mph - N/A   Mostly Cloudy
4:55 PM 89.6 °F 96.2 °F 71.6 °F 55% 29.98 in 10.0 mi West 8.1 mph - N/A   Mostly Cloudy
5:15 PM 87.8 °F 92.6 °F 69.8 °F 55% 29.98 in 10.0 mi WNW 4.6 mph - N/A   Mostly Cloudy
5:35 PM 86.0 °F 91.8 °F 71.6 °F 62% 29.98 in 10.0 mi WNW 3.5 mph - N/A   Scattered Clouds
5:55 PM 87.8 °F 92.6 °F 69.8 °F 55% 29.98 in 10.0 mi WNW 5.8 mph - N/A   Scattered Clouds
6:15 PM 87.8 °F 92.6 °F 69.8 °F 55% 29.98 in 10.0 mi West 5.8 mph - N/A Thunderstorm Clear
6:35 PM 87.8 °F 93.8 °F 71.6 °F 58% 29.98 in 10.0 mi West 6.9 mph - N/A   Clear
6:55 PM 86.0 °F 91.8 °F 71.6 °F 62% 29.98 in 10.0 mi West 5.8 mph - N/A   Clear
7:15 PM 84.2 °F 90.9 °F 73.4 °F 70% 29.99 in 10.0 mi West 5.8 mph - N/A   Clear
7:35 PM 84.2 °F 90.9 °F 73.4 °F 70% 29.99 in 10.0 mi West 4.6 mph - N/A   Clear
7:55 PM 84.2 °F 90.9 °F 73.4 °F 70% 30.00 in 10.0 mi West 5.8 mph - N/A   Clear
8:15 PM 82.4 °F 88.2 °F 73.4 °F 74% 30.01 in 10.0 mi WSW 4.6 mph - N/A   Clear
8:35 PM 80.6 °F 85.4 °F 73.4 °F 79% 30.01 in 10.0 mi Calm Calm - N/A   Clear
8:55 PM 80.6 °F 85.4 °F 73.4 °F 79% 30.02 in 10.0 mi Calm Calm - N/A   Clear
9:15 PM 78.8 °F - 73.4 °F 83% 30.03 in 10.0 mi Calm Calm - N/A   Clear
9:35 PM 78.8 °F - 73.4 °F 83% 30.04 in 10.0 mi Calm Calm - N/A   Clear
9:55 PM 78.8 °F - 73.4 °F 83% 30.04 in 10.0 mi Calm Calm - N/A   Clear
10:15 PM 78.8 °F - 73.4 °F 83% 30.04 in 10.0 mi Calm Calm - N/A   Clear
10:35 PM 78.8 °F - 73.4 °F 83% 30.04 in 10.0 mi Calm Calm - N/A   Clear
10:55 PM 77.0 °F - 73.4 °F 89% 30.04 in 10.0 mi Calm Calm - N/A   Clear
11:15 PM 77.0 °F - 73.4 °F 89% 30.04 in 10.0 mi Calm Calm - N/A   Clear
11:35 PM 77.0 °F - 73.4 °F 89% 30.05 in 10.0 mi Calm Calm - N/A   Scattered Clouds
11:55 PM 77.0 °F - 73.4 °F 89% 30.04 in 10.0 mi Calm Calm - N/A   Scattered Clouds